Regional Weather Roundup
Issued by NWS Midland/Odessa, TX

Home | Current Version | Previous Version | Text Only | Print | Product List | Glossary On
Versions: 1 2 3 4 5 6 7 8 9 10 11 12 13 14 15 16 17 18 19 20 21 22 23 24 25 26 27 28 29 30 31 32 33 34 35 36 37 38 39 40 41 42 43 44 45 46 47 48 49 50
000
ASUS44 KMAF 041010
RWRMAF
MIDLAND AREA WEATHER ROUNDUP
NATIONAL WEATHER SERVICE MIDLAND TX
500 AM CDT WED MAY 04 2016

...IN SOUTHWEST TEXAS AND SOUTHEAST NEW MEXICO...

CITY           SKY/WX    TMP DP  RH WIND       PRES   REMARKS
ALPINE         CLEAR     49  38  66 CALM      30.28R
ANDREWS        FAIR      48  47  95 NW3       30.20S
ARTESIA        CLEAR     46  30  53 NW8       30.24S
BIG SPRING     CLEAR     50  47  88 CALM      30.19R
CARLSBAD       CLEAR     51  36  56 N10       30.21R
DRYDEN           N/A     62  51  67 NE8       30.13R
FORT STOCKTON  CLEAR     54  44  69 S7        30.18R
GUAD PASS      CLEAR     54  37  52 NE26      30.26S
HOBBS          CLEAR     43  43 100 NW7       30.23S WCI  39
MARFA          CLEAR     53  38  56 NE12      30.24S
MIDLAND AIRPK  CLEAR     53  46  78 CALM      30.19S
MIDLAND INTL   CLEAR     50  44  80 NW5       30.17S
ODESSA         CLEAR     51  44  77 N6        30.18S
PECOS          CLEAR     53  44  71 SW6       30.19R
PRESIDIO       FAIR      66  44  44 MISG      30.13R
SEMINOLE       CLEAR     47  45  93 NW8       30.21S
SNYDER           N/A     51  47  86 NW6       30.16R
WINK           CLEAR     49  42  77 N6        30.18R
$$
...OTHER STATIONS IN TEXAS...

CITY           SKY/WX    TMP DP  RH WIND       PRES   REMARKS
ABILENE        CLEAR     53  52  96 CALM      30.13R
AMARILLO       CLEAR     45  35  68 NW6       30.20R
AUSTIN         CLEAR     54  51  90 W7        30.07R
BROWNSVILLE    MOCLDY    67  61  81 NW5       30.03S
CORPUS CHRISTI PTCLDY    61  52  72 N8        30.05F
DALLAS FTW     CLEAR     59  54  83 W7        30.05R
DEL RIO        PTCLDY    59  53  80 E7        30.12R
EL PASO        CLEAR     62  33  33 NE3       30.18S
HOUSTON INT    CLEAR     56  52  86 N5        30.04R
LUBBOCK        CLEAR     42  38  85 NW6       30.18S WCI  38
SAN ANGELO     CLEAR     50  48  93 W3        30.11F
SAN ANTONIO    PTCLDY    54  49  83 W6        30.09S
WACO           CLEAR     51  48  89 W5        30.07R
WICHITA FALLS  NOT AVBL
$$
...OTHER LOCATIONS IN NEW MEXICO...

CITY           SKY/WX    TMP DP  RH WIND       PRES   REMARKS
ALAMAGORDO     CLEAR     55  30  38 CALM      30.21S
ALBUQUERQUE    CLEAR     57  28  33 NE7       30.28R
CANNON AFB     CLEAR     42  32  69 NW7       30.24S WCI  37
CLOVIS         CLEAR     41  30  65 NW7       30.25R WCI  36
HOLLOMAN AFB   CLEAR     53  31  42 SW6       30.19R
ROSWELL        CLEAR     48  31  51 W3        30.23S
RUIDOSO          N/A     45  28  53 SW3       30.37S
SANTA FE       CLEAR     37  29  72 N3        30.33S
TRUTH OR CONSE CLEAR     52  26  36 NW8       30.22S
TUCUMCARI      CLEAR     42  33  70 W8        30.24R WCI  37
$$



USA.gov is the U.S. government's official web portal to all federal, state and local government web resources and services.